Regional Weather Roundup
Issued by NWS

Home | Current Version | Previous Version | Graphics & Text | Print | Product List | Glossary On
Versions: 1 2 3 4 5 6 7 8 9 10 11 12 13 14 15 16 17 18 19 20 21 22 23 24 25 26 27
000
ASUS45 KBOU 250006
RWRCO

WEATHER ROUNDUP FOR COLORADO
NATIONAL WEATHER SERVICE DENVER/BOULDER CO
600 PM MDT THU APR 24 2014

NOTE: "FAIR" INDICATES FEW OR NO CLOUDS BELOW 12000 FEET WITH NO
SIGNIFICANT WEATHER AND/OR OBSTRUCTIONS TO VISIBILITY.

COZ001>005-013-030-031-250100-
...NORTHWEST COLORADO...

CITY           SKY/WX    TMP DP  RH WIND       PRES   REMARKS
CRAIG          MOSUNNY   57  19  22 W22G28    29.98S
HAYDEN         MOSUNNY   55  19  24 W26       30.00S
MEEKER         CLOUDY    60  14  16 W13       29.98S
MOUNT WERNER   PTSUNNY   39   9  28 W18G29    30.11R
STEAMBOAT SPGS CLOUDY    56  10  16 W16G26    29.98F
WALDEN         PTSUNNY   46  18  31 SW17      30.00S
$$

COZ006>008-011-250100-
...WEST CENTRAL VALLEYS...

CITY           SKY/WX    TMP DP  RH WIND       PRES   REMARKS
GRAND JUNCTION MOSUNNY   63  13  14 W5        29.97F
MONTROSE       MOSUNNY   63  10  12 VRB3      30.02S
EAGLE          MOSUNNY   59  12  15 W17G24    30.01R
RIFLE          PTSUNNY   62  11  13 W23       29.97F
DELTA          NOT AVBL
NUCLA          NOT AVBL
$$

COZ017>023-064>068-250100-
...SOUTHWEST COLORADO...

CITY           SKY/WX    TMP DP  RH WIND       PRES   REMARKS
DURANGO        SUNNY     61  -9   5 SW15G25   30.04F
CORTEZ         SUNNY     64  -5   6 W12       30.04S
PAGOSA SPRINGS SUNNY     58  -6   7 SW15      30.09S
TELLURIDE      NOT AVBL
WOLF CREEK PAS SUNNY     34  10  37 SW22G29   30.22S WCI  22
$$

COZ009-010-012-014-032>034-037-058>063-250100-
...CENTRAL COLORADO...

CITY           SKY/WX    TMP DP  RH WIND       PRES   REMARKS
ASPEN          MOSUNNY   56  11  16 SW12G21   30.03R
BUENA VISTA    MOSUNNY   57   4  12 W21G29    30.00S
COPPER MTN     MOSUNNY   37  12  35 W25G36    30.16R
BERTHOUD PASS  PTSUNNY   28  19  69 MISG      30.15S
COTTONWOOD PAS MOSUNNY   52  -2  11 W6G16     30.07S
GUNNISON       SUNNY     55   5  13 SW14G23   30.08R
KREMMLING      CLOUDY    55  12  18 W10G17    30.00S
LEADVILLE      MOSUNNY   43  12  28 NW7G20    30.08S
MONARCH PASS   SUNNY     36   5  27 W32G53    30.27R
SALIDA         MOSUNNY   63   7  11 SW20      30.05S
SUNLIGHT       MOSUNNY   39  18  41 CALM      30.16S
WILKERSON PASS MOSUNNY   41   9  26 W10G21    30.14S
$$

COZ069>075-250100-
...SAN LUIS VALLEY/SANGRE DE CRISTO MOUNTAINS...

CITY           SKY/WX    TMP DP  RH WIND       PRES   REMARKS
ALAMOSA        SUNNY     64   9  11 NW13      29.96S
LA VETA PASS   SUNNY     46  10  23 W7        30.10S
SAGUACHE       MOSUNNY   61   3  10 N21G28    30.00S
$$

COZ035-036-038>040-250100-
...NORTHERN COLORADO FRONT RANGE...

CITY           SKY/WX    TMP DP  RH WIND       PRES   REMARKS
DENVER INTL AP MOSUNNY   61  29  29 E15       29.87F
DMNS CITY PARK   N/A     66  25  21 S3        29.86S
AURORA         PTSUNNY   63  32  31 E12       29.88F
FRONT RANGE AP NOT AVBL
ERIE MUNI ARPT MOSUNNY   62  24  23 E8        29.85F
BOULDER MUN AP MOSUNNY   64  27  24 E6        29.85F
CENTENNIAL     PTSUNNY   63  26  24 VRB3      29.87F
BROOMFIELD     MOSUNNY   63  27  25 NE5       29.88F
FORT COLLINS   MOSUNNY   61  25  25 SE6       29.88S
LONGMONT       NOT AVBL
$$

COZ041-046-047-076>085-087-088-250100-
...PIKES PEAK/PALMER DIVIDE AND SOUTHERN FOOTHILLS...

CITY           SKY/WX    TMP DP  RH WIND       PRES   REMARKS
COLO. SPRINGS  MOSUNNY   58  17  20 SE12      29.93R
A. F. ACADEMY  NOT AVBL
ELLICOTT       NOT AVBL
FALCON         MOSUNNY   57  17  20 S13       29.96S
FORT CARSON    NOT AVBL
LIMON          SUNNY     61  16  17 S12G21    29.90F
MONUMENT HILL  MOSUNNY   54  21  28 S14G21    29.94S
TRINIDAD       MOSUNNY   70  16  12 E7        29.89F
$$

COZ042>045-048>051-090-091-250100-
...NORTHEAST COLORADO...

CITY           SKY/WX    TMP DP  RH WIND       PRES   REMARKS
GREELEY ARPT   MOSUNNY   64  23  20 SE9       29.87S
AKRON          SUNNY     61  17  18 SW10      29.89S
BURLINGTON     MOSUNNY   64  15  15 W5        29.90F
WRAY           SUNNY     69  15  12 SW9       29.86S
STERLING       NOT AVBL
HOLYOKE        NOT AVBL
FORT MORGAN    NOT AVBL
$$

COZ086-089-092>099-250100-
...SOUTHEAST COLORADO...

CITY           SKY/WX    TMP DP  RH WIND       PRES   REMARKS
PUEBLO         SUNNY     68  21  16 E23G30    29.84S
LA JUNTA       MOSUNNY   65  20  17 SE17      29.86F
LAMAR          MOSUNNY   65  18  16 SE5       29.88F
SPRINGFIELD      N/A     63  20  19 SE9       29.91F
$$



USA.gov is the U.S. government's official web portal to all federal, state and local government web resources and services.